H1 CPF 2 NER 2024 9 4 9 248 01 glonass127 H2 1106403 9127 37869 2024 9 4 0 0 0 2024 9 7 23 45 0 900 1 1 0 0 0 1 H9 10 0 60557 0.00000 0 -13661008.589 11038751.697 18568759.250 10 0 60557 900.00000 0 -12777244.678 8819926.227 20304834.478 10 0 60557 1800.00000 0 -12009002.630 6359999.906 21648972.104 10 0 60557 2700.00000 0 -11395933.186 3713734.683 22575252.136 10 0 60557 3600.00000 0 -10967645.210 943228.827 23065766.969 10 0 60557 4500.00000 0 -10742452.439 -1884398.397 23110961.755 10 0 60557 5400.00000 0 -10726605.601 -4699529.214 22709821.439 10 0 60557 6300.00000 0 -10914041.810 -7432675.757 21869900.843 10 0 60557 7200.00000 0 -11286662.314 -10017108.617 20607196.449 10 0 60557 8100.00000 0 -11815128.445 -12391379.373 18945860.902 10 0 60557 9000.00000 0 -12460144.470 -14501634.611 16917763.717 10 0 60557 9900.00000 0 -13174176.015 -16303626.622 14561904.230 10 0 60557 10800.00000 0 -13903534.447 -17764337.587 11923685.531 10 0 60557 11700.00000 0 -14590741.839 -18863149.162 9054060.825 10 0 60557 12600.00000 0 -15177078.659 -19592507.416 6008566.461 10 0 60557 13500.00000 0 -15605207.646 -19958053.651 2846258.575 10 0 60557 14400.00000 0 -15821763.072 -19978213.652 -371427.237 10 0 60557 15300.00000 0 -15779794.863 -19683260.763 -3581871.456 10 0 60557 16200.00000 0 -15440962.214 -19113890.642 -6722497.846 10 0 60557 17100.00000 0 -14777381.155 -18319366.811 -9732007.440 10 0 60557 18000.00000 0 -13773044.597 -17355314.965 -12551593.622 10 0 60557 18900.00000 0 -12424751.376 -16281259.730 -15126112.642 10 0 60557 19800.00000 0 -10742501.676 -15158009.143 -17405184.476 10 0 60557 20700.00000 0 -8749339.251 -14044999.233 -19344200.272 10 0 60557 21600.00000 0 -6480644.802 -12997713.047 -20905214.634 10 0 60557 22500.00000 0 -3982908.756 -12065285.424 -22057703.570 10 0 60557 23400.00000 0 -1312034.369 -11288396.719 -22779171.925 10 0 60557 24300.00000 0 1468757.543 -10697546.030 -23055597.666 10 0 60557 25200.00000 0 4291333.781 -10311777.739 -22881704.000 10 0 60557 26100.00000 0 7085262.026 -10137915.340 -22261054.256 10 0 60557 27000.00000 0 9780521.730 -10170334.254 -21205968.356 10 0 60557 27900.00000 0 12310198.250 -10391281.881 -19737263.573 10 0 60557 28800.00000 0 14613046.937 -10771729.415 -17883826.080 10 0 60557 29700.00000 0 16635820.007 -11272717.079 -15682023.261 10 0 60557 30600.00000 0 18335259.560 -11847133.386 -13174970.056 10 0 60557 31500.00000 0 19679674.876 -12441850.746 -10411665.466 10 0 60557 32400.00000 0 20650040.167 -13000124.943 -7446017.847 10 0 60557 33300.00000 0 21240569.688 -13464155.345 -4335779.539 10 0 60557 34200.00000 0 21458749.343 -13777696.529 -1141412.971 10 0 60557 35100.00000 0 21324826.932 -13888610.596 2075088.763 10 0 60557 36000.00000 0 20870785.749 -13751252.688 5251403.410 10 0 60557 36900.00000 0 20138847.545 -13328589.984 8326079.790 10 0 60557 37800.00000 0 19179569.973 -12593966.176 11239714.026 10 0 60557 38700.00000 0 18049619.819 -11532438.791 13936080.078 10 0 60557 39600.00000 0 16809315.938 -10141634.659 16363194.228 10 0 60557 40500.00000 0 15520044.474 -8432088.902 18474294.940 10 0 60557 41400.00000 0 14241653.393 -6427053.956 20228721.344 10 0 60557 42300.00000 0 13029933.479 -4161786.585 21592675.688 10 0 60557 43200.00000 0 11934288.861 -1682341.777 22539857.198 10 0 60557 44100.00000 0 10995692.029 956077.946 23051956.999 10 0 60557 45000.00000 0 10245006.630 3691151.614 23119005.903 10 0 60557 45900.00000 0 9701746.399 6455766.039 22739569.097 10 0 60557 46800.00000 0 9373321.078 9180546.013 21920783.994 10 0 60557 47700.00000 0 9254800.693 11796486.871 20678239.789 10 0 60557 48600.00000 0 9329208.707 14237583.272 19035699.614 10 0 60557 49500.00000 0 9568333.189 16443347.652 17024668.644 10 0 60557 50400.00000 0 9934023.983 18361115.407 14683814.070 10 0 60557 51300.00000 0 10379923.662 19948041.758 12058245.547 10 0 60557 52200.00000 0 10853561.689 21172706.976 9198667.414 10 0 60557 53100.00000 0 11298725.493 22016262.010 6160416.825 10 0 60557 54000.00000 0 11658009.629 22473064.938 3002404.605 10 0 60557 54900.00000 0 11875435.793 22550779.547 -214021.879 10 0 60557 55800.00000 0 11899032.293 22269929.738 -3426272.128 10 0 60557 56700.00000 0 11683262.313 21662926.493 -6571738.768 10 0 60557 57600.00000 0 11191195.757 20772606.883 -9589031.814 10 0 60557 58500.00000 0 10396329.713 19650345.808 -12419195.280 10 0 60557 59400.00000 0 9283977.072 18353820.052 -15006880.442 10 0 60557 60300.00000 0 7852161.116 16944519.664 -17301450.669 10 0 60557 61200.00000 0 6111975.071 15485113.058 -19257993.940 10 0 60557 62100.00000 0 4087388.754 14036778.876 -20838221.202 10 0 60557 63000.00000 0 1814508.441 12656619.210 -22011231.261 10 0 60557 63900.00000 0 -659680.068 11395265.334 -22754125.858 10 0 60557 64800.00000 0 -3279032.800 10294778.553 -23052462.109 10 0 60557 65700.00000 0 -5980360.852 9386935.746 -22900533.141 10 0 60557 66600.00000 0 -8695846.109 8691972.259 -22301471.634 10 0 60557 67500.00000 0 -11355657.161 8217834.661 -21267174.923 10 0 60557 68400.00000 0 -13890654.839 7959973.599 -19818054.202 10 0 60557 69300.00000 0 -16235073.182 7901683.519 -17982614.112 10 0 60557 70200.00000 0 -18329063.268 8014972.390 -15796872.576 10 0 60557 71100.00000 0 -20120993.606 8261921.874 -13303633.942 10 0 60557 72000.00000 0 -21569411.676 8596477.584 -10551631.462 10 0 60557 72900.00000 0 -22644586.100 8966591.063 -7594557.584 10 0 60557 73800.00000 0 -23329567.145 9316620.610 -4490002.542 10 0 60557 74700.00000 0 -23620723.924 9589887.757 -1298323.294 10 0 60557 75600.00000 0 -23527738.909 9731280.302 1918534.215 10 0 60557 76500.00000 0 -23073063.206 9689791.674 5098236.029 10 0 60557 77400.00000 0 -22290858.425 9420889.813 8179261.008 10 0 60557 78300.00000 0 -21225471.996 8888616.670 11102078.749 10 0 60557 79200.00000 0 -19929511.666 8067331.278 13810282.828 10 0 60557 80100.00000 0 -18461600.746 6943024.560 16251658.954 10 0 60557 81000.00000 0 -16883908.098 5514152.079 18379169.354 10 0 60557 81900.00000 0 -15259555.247 3791950.760 20151836.563 10 0 60557 82800.00000 0 -13650007.336 1800226.717 21535511.843 10 0 60557 83700.00000 0 -12112554.620 -425377.410 22503515.599 10 0 60557 84600.00000 0 -10697987.079 -2838606.369 23037139.321 10 0 60557 85500.00000 0 -9448556.669 -5384258.589 23126000.744 10 0 60558 0.00000 0 -8396310.055 -8000228.123 22768246.216 10 0 60558 900.00000 0 -7561859.248 -10619842.112 21970596.132 10 0 60558 1800.00000 0 -6953641.887 -13174396.560 20748232.448 10 0 60558 2700.00000 0 -6567700.159 -15595793.105 19124528.390 10 0 60558 3600.00000 0 -6387989.758 -17819166.593 17130623.980 10 0 60558 4500.00000 0 -6387206.777 -19785397.734 14804853.058 10 0 60558 5400.00000 0 -6528099.789 -21443407.247 12192030.254 10 0 60558 6300.00000 0 -6765214.030 -22752136.179 9342609.135 10 0 60558 7200.00000 0 -7046996.138 -23682128.966 6311725.472 10 0 60558 8100.00000 0 -7318172.143 -24216651.585 3158142.344 10 0 60558 9000.00000 0 -7522299.032 -24352295.826 -56883.728 10 0 60558 9900.00000 0 -7604381.868 -24099041.960 -3270794.060 10 0 60558 10800.00000 0 -7513444.628 -23479774.807 -6420953.089 10 0 60558 11700.00000 0 -7204943.951 -22529271.502 -9445882.885 10 0 60558 12600.00000 0 -6642920.832 -21292702.148 -12286481.246 10 0 60558 13500.00000 0 -5801795.962 -19823705.791 -14887197.667 10 0 60558 14400.00000 0 -4667729.277 -18182122.885 -17197142.027 10 0 60558 15300.00000 0 -3239482.908 -16431480.663 -19171102.087 10 0 60558 16200.00000 0 -1528748.075 -14636338.829 -20770447.806 10 0 60558 17100.00000 0 440080.232 -12859609.173 -21963903.061 10 0 60558 18000.00000 0 2630672.938 -11159963.939 -22728168.293 10 0 60558 18900.00000 0 4996049.402 -9589443.746 -23048381.061 10 0 60558 19800.00000 0 7480318.978 -8191367.000 -22918405.168 10 0 60558 20700.00000 0 10020807.979 -6998629.355 -22340942.882 10 0 60558 21600.00000 0 12550481.861 -6032464.597 -21327468.708 10 0 60558 22500.00000 0 15000559.983 -5301718.009 -19897987.048 10 0 60558 23400.00000 0 17303212.229 -4802660.990 -18080619.860 10 0 60558 24300.00000 0 19394223.734 -4519352.180 -15911034.005 10 0 60558 25200.00000 0 21215515.768 -4424526.890 -13431721.193 10 0 60558 26100.00000 0 22717417.431 -4480974.060 -10691146.434 10 0 60558 27000.00000 0 23860593.990 -4643339.473 -7742783.367 10 0 60558 27900.00000 0 24617552.738 -4860276.149 -4644056.858 10 0 60558 28800.00000 0 24973665.508 -5076848.718 -1455214.867 10 0 60558 29700.00000 0 24927667.755 -5237088.497 1761847.472 10 0 60558 30600.00000 0 24491616.184 -5286590.415 4944788.165 10 0 60558 31500.00000 0 23690309.622 -5175042.032 8032019.653 10 0 60558 32400.00000 0 22560199.971 -4858578.490 10963888.285 10 0 60558 33300.00000 0 21147840.843 -4301865.297 13683810.208 10 0 60558 34200.00000 0 19507940.067 -3479822.664 16139343.107 10 0 60558 35100.00000 0 17701097.838 -2378920.414 18283175.093 10 0 60558 36000.00000 0 15791324.438 -997990.363 20074013.790 10 0 60558 36900.00000 0 13843439.729 651477.149 21477360.732 10 0 60558 37800.00000 0 11920460.781 2545564.905 22466158.339 10 0 60558 38700.00000 0 10081083.920 4648679.818 23021298.877 10 0 60558 39600.00000 0 8377363.403 6914793.585 23131987.000 10 0 60558 40500.00000 0 6852680.793 9289123.799 22795949.691 10 0 60558 41400.00000 0 5540087.448 11710188.587 22019489.624 10 0 60558 42300.00000 0 4461087.683 14112152.693 20817380.263 10 0 60558 43200.00000 0 3624912.589 16427370.840 19212603.343 10 0 60558 44100.00000 0 3028314.906 18589025.700 17235931.836 10 0 60558 45000.00000 0 2655894.386 20533753.140 14925364.057 10 0 60558 45900.00000 0 2480941.376 22204147.054 12325417.241 10 0 60558 46800.00000 0 2466765.010 23551039.970 9486291.631 10 0 60558 47700.00000 0 2568451.955 24535463.796 6462918.943 10 0 60558 48600.00000 0 2734983.150 25130207.446 3313911.772 10 0 60558 49500.00000 0 2911620.262 25320904.005 100433.015 10 0 60558 50400.00000 0 3042461.218 25106599.370 -3114993.195 10 0 60558 51300.00000 0 3073056.138 24499775.755 -6269705.733 10 0 60558 52200.00000 0 2952971.363 23525826.628 -9302141.187 10 0 60558 53100.00000 0 2638190.703 22222003.067 -12153053.376 10 0 60558 54000.00000 0 2093249.260 20635874.556 -14766691.979 10 0 60558 54900.00000 0 1293006.209 18823368.415 -17091915.103 10 0 60558 55800.00000 0 223978.182 16846470.646 -19083211.731 10 0 60558 56700.00000 0 -1114826.236 14770685.912 -20701612.047 10 0 60558 57600.00000 0 -2711608.781 12662364.961 -21915466.001 10 0 60558 58500.00000 0 -4542035.095 10586013.638 -22701073.517 10 0 60558 59400.00000 0 -6570030.121 8601698.328 -23043153.147 10 0 60558 60300.00000 0 -8749082.329 6762658.206 -22935139.663 10 0 60558 61200.00000 0 -11024001.613 5113225.506 -22379304.898 10 0 60558 62100.00000 0 -13333056.235 3687141.249 -21386700.146 10 0 60558 63000.00000 0 -15610397.988 2506336.430 -19976922.248 10 0 60558 63900.00000 0 -17788672.515 1580228.344 -18177709.339 10 0 60558 64800.00000 0 -19801704.199 905559.199 -16024375.732 10 0 60558 65700.00000 0 -21587142.248 466780.885 -13559098.730 10 0 60558 66600.00000 0 -23088956.726 236966.268 -10830073.134 10 0 60558 67500.00000 0 -24259680.234 179205.136 -7890551.656 10 0 60558 68400.00000 0 -25062302.297 248422.542 -4797791.595 10 0 60558 69300.00000 0 -25471738.683 393539.873 -1611929.652 10 0 60558 70200.00000 0 -25475816.260 559885.095 1605192.165 10 0 60558 71100.00000 0 -25075734.679 691748.836 4791226.196 10 0 60558 72000.00000 0 -24285988.191 734977.690 7884520.878 10 0 60558 72900.00000 0 -23133753.413 639495.419 10825301.789 10 0 60558 73800.00000 0 -21657770.741 361646.539 13556810.111 10 0 60558 74700.00000 0 -19906767.697 -133735.159 16026377.939 10 0 60558 75600.00000 0 -17937490.705 -871618.600 18186421.582 10 0 60558 76500.00000 0 -15812427.195 -1865498.246 19995335.871 10 0 60558 77400.00000 0 -13597311.908 -3116600.144 21418274.473 10 0 60558 78300.00000 0 -11358519.337 -4613603.919 22427803.350 10 0 60558 79200.00000 0 -9160448.354 -6332892.566 23004416.711 10 0 60558 80100.00000 0 -7063005.007 -8239320.702 23136906.914 10 0 60558 81000.00000 0 -5119285.334 -10287471.156 22822582.029 10 0 60558 81900.00000 0 -3373551.943 -12423350.220 22067326.966 10 0 60558 82800.00000 0 -1859586.561 -14586454.073 20885506.377 10 0 60558 83700.00000 0 -599485.774 -16712123.688 19299709.820 10 0 60558 84600.00000 0 397050.388 -18734093.382 17340342.198 10 0 60558 85500.00000 0 1132906.989 -20587129.545 15045064.959 10 0 60559 0.00000 0 1623211.012 -22209651.434 12458096.532 10 0 60559 900.00000 0 1894469.627 -23546226.503 9629381.441 10 0 60559 1800.00000 0 1983223.789 -24549833.914 6613645.405 10 0 60559 2700.00000 0 1934273.120 -25183803.404 3469348.167 10 0 60559 3600.00000 0 1798544.944 -25423344.179 257556.498 10 0 60559 4500.00000 0 1630697.159 -25256598.038 -2959242.639 10 0 60559 5400.00000 0 1486556.397 -24685169.516 -6118365.271 10 0 60559 6300.00000 0 1420500.922 -23724107.815 -9158165.274 10 0 60559 7200.00000 0 1482900.953 -22401338.726 -12019255.294 10 0 60559 8100.00000 0 1717727.350 -20756568.414 -14645688.004 10 0 60559 9000.00000 0 2160432.982 -18839703.918 -16986072.455 10 0 60559 9900.00000 0 2836199.637 -16708856.386 -18994601.436 10 0 60559 10800.00000 0 3758627.791 -14428011.370 -20631967.680 10 0 60559 11700.00000 0 4928927.357 -12064465.097 -21866149.199 10 0 60559 12600.00000 0 6335645.796 -9686135.878 -22673046.991 10 0 60559 13500.00000 0 7954946.523 -7358865.118 -23036961.752 10 0 60559 14400.00000 0 9751426.600 -5143822.658 -22950899.905 10 0 60559 15300.00000 0 11679439.238 -3095126.356 -22416703.089 10 0 60559 16200.00000 0 13684864.815 -1257776.208 -21444999.198 10 0 60559 17100.00000 0 15707254.829 334010.739 -20054976.926 10 0 60559 18000.00000 0 17682257.315 1657995.993 -18273989.588 10 0 60559 18900.00000 0 19544220.439 2704597.625 -16136997.563 10 0 60559 19800.00000 0 21228863.784 3477024.987 -13685861.957 10 0 60559 20700.00000 0 22675904.347 3990867.789 -10968505.152 10 0 60559 21600.00000 0 23831526.797 4273160.475 -8037956.344 10 0 60559 22500.00000 0 24650594.749 4360964.951 -4951302.316 10 0 60559 23400.00000 0 25098511.276 4299534.781 -1768565.307 10 0 60559 24300.00000 0 25152652.314 4140141.175 1448469.179 10 0 60559 25200.00000 0 24803314.929 3937654.631 4637451.234 10 0 60559 26100.00000 0 24054143.056 3747985.589 7736668.639 10 0 60559 27000.00000 0 22922015.232 3625492.491 10686229.371 10 0 60559 27900.00000 0 21436401.112 3620466.149 13429202.564 10 0 60559 28800.00000 0 19638215.251 3776795.344 15912697.318 10 0 60559 29700.00000 0 17578216.875 4129910.414 18088860.401 10 0 60559 30600.00000 0 15315022.442 4705089.630 19915775.761 10 0 60559 31500.00000 0 12912812.900 5516197.957 21358250.722 10 0 60559 32400.00000 0 10438829.436 6564909.993 22388475.951 10 0 60559 33300.00000 0 7960759.411 7840449.254 22986548.363 10 0 60559 34200.00000 0 5544118.338 9319855.093 23140848.363 10 0 60559 35100.00000 0 3249733.620 10968767.434 22848265.001 10 0 60559 36000.00000 0 1131431.681 12742698.686 22114264.863 10 0 60559 36900.00000 0 -765977.884 14588742.528 20952802.739 10 0 60559 37800.00000 0 -2408339.151 16447651.460 19386074.523 10 0 60559 38700.00000 0 -3773340.686 18256199.697 17444115.137 10 0 60559 39600.00000 0 -4851210.894 19949735.726 15164246.910 10 0 60559 40500.00000 0 -5644888.362 21464820.311 12590386.441 10 0 60559 41400.00000 0 -6169658.939 22741841.189 9772220.745 10 0 60559 42300.00000 0 -6452273.237 23727495.523 6764266.238 10 0 60559 43200.00000 0 -6529580.024 24377035.555 3624826.890 10 0 60559 44100.00000 0 -6446731.655 24656181.690 414870.402 10 0 60559 45000.00000 0 -6255036.241 24542620.308 -2803156.327 10 0 60559 45900.00000 0 -6009547.081 24027020.422 -5966549.263 10 0 60559 46800.00000 0 -5766491.780 23113523.294 -9013582.188 10 0 60559 47700.00000 0 -5580651.286 21819681.383 -11884728.973 10 0 60559 48600.00000 0 -5502801.886 20175846.569 -14523847.404 10 0 60559 49500.00000 0 -5577331.174 18224031.468 -16879299.311 10 0 60559 50400.00000 0 -5840131.892 16016290.559 -18904982.817 10 0 60559 51300.00000 0 -6316865.802 13612688.894 -20561254.447 10 0 60559 52200.00000 0 -7021673.789 11078944.116 -21815721.248 10 0 60559 53100.00000 0 -7956389.009 8483841.863 -22643885.998 10 0 60559 54000.00000 0 -9110287.946 5896534.325 -23029631.971 10 0 60559 54900.00000 0 -10460390.812 3383836.658 -22965537.386 10 0 60559 55800.00000 0 -11972298.723 1007635.773 -22453013.505 10 0 60559 56700.00000 0 -13601531.846 -1177479.199 -21502264.280 10 0 60559 57600.00000 0 -15295311.077 -3126265.488 -20132069.333 10 0 60559 58500.00000 0 -16994706.782 -4804469.209 -18369395.875 10 0 60559 59400.00000 0 -18637062.594 -6189994.616 -16248848.718 10 0 60559 60300.00000 0 -20158590.817 -7273553.477 -13811970.863 10 0 60559 61200.00000 0 -21497029.057 -8058770.386 -11106410.150 10 0 60559 62100.00000 0 -22594245.624 -8561743.151 -8184969.985 10 0 60559 63000.00000 0 -23398684.062 -8810080.516 -5104564.278 10 0 60559 63900.00000 0 -23867544.538 -8841461.361 -1925098.373 10 0 60559 64800.00000 0 -23968611.578 -8701779.400 1291701.193 10 0 60559 65700.00000 0 -23681653.062 -8442954.244 4483484.767 10 0 60559 66600.00000 0 -22999333.755 -8120503.006 7588482.008 10 0 60559 67500.00000 0 -21927607.212 -7790975.805 10546685.825 10 0 60559 68400.00000 0 -20485571.645 -7509363.353 13300995.806 10 0 60559 69300.00000 0 -18704797.393 -7326585.068 15798300.469 10 0 60559 70200.00000 0 -16628155.132 -7287162.112 17990479.289 10 0 60559 71100.00000 0 -14308193.920 -7427171.445 19835307.332 10 0 60559 72000.00000 0 -11805136.049 -7772565.054 21297247.287 10 0 60559 72900.00000 0 -9184570.679 -8337923.300 22348115.865 10 0 60559 73800.00000 0 -6514939.847 -9125693.598 22967613.642 10 0 60559 74700.00000 0 -3864918.511 -10125946.018 23143709.620 10 0 60559 75600.00000 0 -1300794.269 -11316656.565 22872874.007 10 0 60559 76500.00000 0 1116047.642 -12664507.784 22160154.857 10 0 60559 77400.00000 0 3331432.460 -14126175.418 21019096.574 10 0 60559 78300.00000 0 5300403.559 -15650050.192 19471500.526 10 0 60559 79200.00000 0 6988847.759 -17178325.827 17547030.488 10 0 60559 80100.00000 0 8374671.296 -18649369.023 15282668.188 10 0 60559 81000.00000 0 9448477.329 -20000274.871 12722026.864 10 0 60559 81900.00000 0 10213715.834 -21169502.651 9914533.463 10 0 60559 82800.00000 0 10686298.266 -22099482.479 6914492.970 10 0 60559 83700.00000 0 10893691.529 -22739083.420 3780051.002 10 0 60559 84600.00000 0 10873527.814 -23045838.240 572073.451 10 0 60559 85500.00000 0 10671787.569 -22987829.208 -2647035.688 10 0 60560 0.00000 0 10340631.652 -22545152.864 -5814554.905 10 0 60560 900.00000 0 9935974.095 -21710898.553 -8868681.305 10 0 60560 1800.00000 0 9514899.438 -20491596.879 -11749752.465 10 0 60560 2700.00000 0 9133034.973 -18907115.333 -14401433.944 10 0 60560 3600.00000 0 8841991.786 -16990003.401 -16771842.845 10 0 60560 4500.00000 0 8686985.446 -14784312.730 -18814584.898 10 0 60560 5400.00000 0 8704739.876 -12343940.956 -20489682.415 10 0 60560 6300.00000 0 8921765.787 -9730568.555 -21764373.123 10 0 60560 7200.00000 0 9353088.781 -7011275.881 -22613762.825 10 0 60560 8100.00000 0 10001482.606 -4255941.324 -23021318.189 10 0 60560 9000.00000 0 10857240.957 -1534530.893 -22979189.611 10 0 60560 9900.00000 0 11898497.726 1085605.960 -22488357.925 10 0 60560 10800.00000 0 13092081.695 3542320.130 -21558602.693 10 0 60560 11700.00000 0 14394868.571 5781017.718 -20208293.652 10 0 60560 12600.00000 0 15755571.781 7756687.621 -18464010.739 10 0 60560 13500.00000 0 17116894.796 9435518.113 -16360001.696 10 0 60560 14400.00000 0 18417952.488 10796036.608 -13937489.579 10 0 60560 15300.00000 0 19596857.862 11829727.506 -11243845.516 10 0 60560 16200.00000 0 20593364.026 12541105.503 -8331644.638 10 0 60560 17100.00000 0 21351449.467 12947244.946 -5257625.215 10 0 60560 18000.00000 0 21821737.732 13076788.765 -2081572.714 10 0 60560 18900.00000 0 21963650.332 12968482.273 1134848.415 10 0 60560 19800.00000 0 21747203.499 12669296.622 4329291.925 10 0 60560 20700.00000 0 21154374.926 12232223.364 7439932.446 10 0 60560 21600.00000 0 20179985.002 11713834.525 10406650.756 10 0 60560 22500.00000 0 18832057.437 11171711.532 13172179.623 10 0 60560 23400.00000 0 17131645.821 10661850.912 15683189.444 10 0 60560 24300.00000 0 15112134.476 10236154.803 17891294.575 10 0 60560 25200.00000 0 12818043.213 9940110.082 19753963.074 10 0 60560 26100.00000 0 10303385.442 9810751.653 21235314.551 10 0 60560 27000.00000 0 7629646.711 9874993.369 22306792.984 10 0 60560 27900.00000 0 4863465.670 10148394.978 22947703.466 10 0 60560 28800.00000 0 2074111.055 10634415.715 23145604.064 10 0 60560 29700.00000 0 -669143.704 11324185.540 22896546.152 10 0 60560 30600.00000 0 -3299642.657 12196804.266 22205158.798 10 0 60560 31500.00000 0 -5755860.542 13220157.587 21084575.055 10 0 60560 32400.00000 0 -7983705.437 14352218.081 19556200.306 10 0 60560 33300.00000 0 -9938517.171 15542779.511 17649325.257 10 0 60560 34200.00000 0 -11586679.517 16735554.692 15400588.716 10 0 60560 35100.00000 0 -12906779.322 17870551.751 12853297.916 10 0 60560 36000.00000 0 -13890263.674 18886631.389 10056616.897 10 0 60560 36900.00000 0 -14541566.420 19724139.197 7064636.243 10 0 60560 37800.00000 0 -14877697.173 20327502.867 3935340.217 10 0 60560 38700.00000 0 -14927308.326 20647684.455 729489.924 10 0 60560 39600.00000 0 -14729277.773 20644382.779 -2490556.442 10 0 60560 40500.00000 0 -14330865.974 20287890.675 -5662063.236 10 0 60560 41400.00000 0 -13785524.677 19560525.697 -8723152.373 10 0 60560 42300.00000 0 -13150450.196 18457570.509 -11614028.129 10 0 60560 43200.00000 0 -12483985.801 16987679.947 -14278166.008 10 0 60560 44100.00000 0 -11842984.882 15172734.534 -16663440.266 10 0 60560 45000.00000 0 -11280248.766 13047144.170 -18723165.810 10 0 60560 45900.00000 0 -10842150.132 10656629.601 -20417031.974 10 0 60560 46800.00000 0 -10566545.118 8056532.017 -21711908.086 10 0 60560 47700.00000 0 -10481064.657 5309721.707 -22582503.574 10 0 60560 48600.00000 0 -10601859.047 2484194.060 -23011868.787 10 0 60560 49500.00000 0 -10932849.878 -349545.312 -22991726.261 10 0 60560 50400.00000 0 -11465521.261 -3121195.640 -22522626.045 10 0 60560 51300.00000 0 -12179258.719 -5763361.497 -21613922.605 10 0 60560 52200.00000 0 -13042220.365 -8214125.056 -20283574.738 10 0 60560 53100.00000 0 -14012701.940 -10419382.290 -18557773.724 10 0 60560 54000.00000 0 -15040936.126 -12334845.960 -16470408.544 10 0 60560 54900.00000 0 -16071248.132 -13927632.916 -14062380.373 10 0 60560 55800.00000 0 -17044474.577 -15177371.405 -11380781.504 10 0 60560 56700.00000 0 -17900541.994 -16076784.814 -8477956.547 10 0 60560 57600.00000 0 -18581094.965 -16631730.768 -5410465.814 10 0 60560 58500.00000 0 -19032062.516 -16860697.575 -2237972.546 10 0 60560 59400.00000 0 -19206054.680 -16793782.814 977923.273 10 0 60560 60300.00000 0 -19064488.991 -16471200.393 4174881.199 10 0 60560 61200.00000 0 -18579358.660 -15941381.642 7291023.242 10 0 60560 62100.00000 0 -17734569.697 -15258752.354 10266120.474 10 0 60560 63000.00000 0 -16526792.547 -14481280.392 13042741.237 10 0 60560 63900.00000 0 -14965794.163 -13667897.141 15567340.130 10 0 60560 64800.00000 0 -13074237.818 -12875900.453 17791268.569 10 0 60560 65700.00000 0 -10886959.657 -12158446.651 19671689.579 10 0 60560 66600.00000 0 -8449752.007 -11562234.927 21172381.395 10 0 60560 67500.00000 0 -5817703.181 -11125478.999 22264416.639 10 0 60560 68400.00000 0 -3053160.940 -10876248.983 22926705.944 10 0 60560 69300.00000 0 -223401.711 -10831251.251 23146397.092 10 0 60560 70200.00000 0 2601900.778 -10995096.346 22919122.913 10 0 60560 71100.00000 0 5353305.812 -11360085.410 22249093.429 10 0 60560 72000.00000 0 7964229.133 -11906524.800 21149029.940 10 0 60560 72900.00000 0 10373453.614 -12603557.237 19639941.121 10 0 60560 73800.00000 0 12527425.361 -13410476.891 17750743.569 10 0 60560 74700.00000 0 14382241.274 -14278475.882 15517731.794 10 0 60560 75600.00000 0 15905246.090 -15152751.567 12983905.309 10 0 60560 76500.00000 0 17076172.071 -15974888.551 10198163.168 10 0 60560 77400.00000 0 17887772.730 -16685417.034 7214379.130 10 0 60560 78300.00000 0 18345922.534 -17226440.802 4090373.370 10 0 60560 79200.00000 0 18469176.578 -17544224.082 886799.224 10 0 60560 80100.00000 0 18287806.885 -17591627.065 -2334034.052 10 0 60560 81000.00000 0 17842354.385 -17330285.286 -5509379.592 10 0 60560 81900.00000 0 17181756.662 -16732438.001 -8577287.825 10 0 60560 82800.00000 0 16361130.211 -15782325.038 -11477832.448 10 0 60560 83700.00000 0 15439301.426 -14477089.634 -14154301.713 10 0 60560 84600.00000 0 14476191.940 -12827145.765 -16554329.584 10 0 60560 85500.00000 0 13530170.717 -10855991.565 -18630942.402 99